Regional Weather Roundup
Issued by NWS Sioux Falls, SD

Home | Current Version | Previous Version | Graphics & Text | Print | Product List | Glossary On
Versions: 1 2 3 4 5 6 7 8 9 10 11 12 13 14 15 16 17 18 19 20 21 22 23 24 25 26 27 28 29 30 31 32 33 34 35 36 37 38 39 40 41 42 43 44 45 46 47 48 49 50
622
ASUS43 KFSD 230902
RWRFSD

WEATHER ROUNDUP FOR SE SOUTH DAKOTA/SW MINNESOTA/NW IOWA
NATIONAL WEATHER SERVICE SIOUX FALLS SD
400 AM CDT SAT JUL 23 2016

NOTE: "FAIR" INDICATES FEW OR NO CLOUDS BELOW 12,000 FEET WITH NO
SIGNIFICANT WEATHER AND OR OBSTRUCTIONS TO VISIBILITY.


SDZ038>040-050-052>070-231000-
SOUTHEAST SOUTH DAKOTA

CITY           SKY/WX    TMP DP  RH WIND       PRES   REMARKS
BROOKINGS      CLOUDY    77  74  90 E8        29.92S
CHAMBERLAIN    CLOUDY    81  80  98 E7        29.86S
HURON          CLOUDY    77  72  84 E8        29.86S
MADISON        CLOUDY    77  77 100 E8        29.91F
MITCHELL       CLOUDY    80  78  94 E5        29.86F
SIOUX FALLS    CLOUDY    80  77  90 E10       29.88F
WINNER         FAIR      80  76  87 E10       29.87S
YANKTON        CLOUDY    81  77  89 SE5       29.83F
$$

MNZ071-072-080-081-089-090-097-098-231000-
SOUTHWEST MINNESOTA

CITY           SKY/WX    TMP DP  RH WIND       PRES   REMARKS
FAIRMONT       CLOUDY    79  55  44 SE9       29.93R
JACKSON        CLOUDY    79  75  89 SE7       29.95R FOG
LUVERNE        MOCLDY    77  73  88 SE5       29.91S
MARSHALL       CLOUDY    75  73  93 SE3       29.92S
MONTEVIDEO     MOCLDY    72  70  94 SE5       29.94F
PIPESTONE      MOCLDY    79  77  94 SE5       29.94R
REDWOOD FALLS  CLOUDY    73  70  90 E6        29.92S
TRACY          CLOUDY    75  74  96 CALM      29.94S
WINDOM         MOCLDY    79  77  94 CALM      29.94R
WORTHINGTON    CLOUDY    78  77  96 SE7       29.95R FOG
$$

IAZ001>003-012>014-020>022-031-032-NEZ013-014-SDZ071-231000-
NORTHWEST IOWA

CITY           SKY/WX    TMP DP  RH WIND       PRES   REMARKS
CHEROKEE       PTCLDY    79  78  97 SE6       29.90S
DENISON        CLOUDY    79  77  94 S10       29.88F
ESTHERVILLE    CLOUDY    77  77 100 SE6       29.93S
LE MARS        CLOUDY    81  77  89 VRB5      29.87F
SHELDON        CLOUDY    79  79 100 E7        29.89S
SIOUX CITY     MOCLDY    81  78  91 SE9       29.85F
SPENCER        CLOUDY    79  76  90 SE8       29.92R
STORM LAKE     MOCLDY    77  77 100 SE7       29.93S
$$

ABBREVIATIONS USED IN REMARKS
   TC - TEMPERATURE IN CELSIUS
  WCI - WIND CHILL INDEX
   HX - HEAT INDEX
  VSB - VISIBILITY





USA.gov is the U.S. government's official web portal to all federal, state and local government web resources and services.